Location: Alto Pass Reservoir
(37.5801°N, 89.3084°W)
Time: 17:07:41
(UTC+00:00)

Cosmos 2298 Rocket - Pass Details

Date: 11 July 2022
Orbit: 775 x 784 km, 74.0° (Epoch: 18 August)

Event Time Altitude Azimuth Distance (km) Brightness Sun altitude
Rises 06:48:29 0° 356° (N) 3,279 8.4 -29.4°
Reaches altitude 10° 06:51:28 10° 12° (NNE) 2,346 7.5 -29.2°
Maximum altitude 06:55:27 21° 61° (ENE) 1,709 6.2 -29.1°
Enters shadow 06:58:37 13° 102° (ESE) 2,132 6.3 -28.9°
